Regional Weather Roundup
Issued by NWS

Home | Current Version | Previous Version | Graphics & Text | Print | Product List | Glossary On
Versions: 1 2 3 4 5 6 7 8 9 10 11 12 13 14 15 16 17 18 19 20 21 22 23 24 25 26 27 28 29 30 31 32 33 34 35 36 37 38 39 40 41 42 43 44 45 46 47 48 49 50
000
ASUS45 KTFX 201804
RWRMT
MONTANA HOURLY WEATHER ROUNDUP
NATIONAL WEATHER SERVICE GREAT FALLS MT
1204 PM MDT MON OCT 20 2014

NOTE: "FAIR" INDICATES FEW OR NO CLOUDS BELOW 12000 FEET WITH NO
SIGNIFICANT WEATHER AND/OR OBSTRUCTIONS TO VISIBILITY.

* THESE STATIONS ARE NOT UNDER NWS QUALITY CONTROL. THEY DO NOT
   REPORT WEATHER SUCH AS PRECIPITATION OR FOG.

MTZ001>007-043-201900-
WEST OF THE DIVIDE
CITY           SKY/WX    TMP DP  RH WIND       PRES   REMARKS
KALISPELL      SUNNY     55  39  55 CALM      29.84F
MISSOULA       SUNNY     50  37  61 CALM      29.89F
BUTTE          SUNNY     57  28  33 N5        30.00F
MULLAN PASS    SUNNY     57  34  42 N/A       29.91S
* ESSEX        N/A       49  36  61 NE1        N/A
* LINCOLN      N/A       44  32  63 S2         N/A
* POLSON       N/A       57  50  78 S2         N/A
* RONAN APT    SUNNY     55  48  77 N/A        N/A
* SEELEY LAKE  N/A       53  37  55 SE1        N/A
* THOMP F APT  SUNNY     61  28  29 SE5G11     N/A
$$

MTZ008-052>055-201900-
SOUTHWEST MONTANA
CITY           SKY/WX    TMP DP  RH WIND       PRES   REMARKS
BOZEMAN        SUNNY     57  37  47 CALM      29.98F
DILLON         SUNNY     63  25  24 CALM      29.99F
W YELLOWSTONE  SUNNY     46  25  44 CALM      30.15F
* THREE FORKS  SUNNY     52  12  20 N/A        N/A
* BOULDER HILL N/A       55  27  34 S12        N/A
* MONIDA PASS  N/A       57  28  33 SE15G20    N/A
* RAYNOLDS PAS N/A       57  40  53 S16        N/A
* WHITEHALL    N/A       56  31  39 E2         N/A
* WISE RIVER   N/A       44  31  60 NW3        N/A
$$

MTZ009>010-012-014-046-048-049-054-201900-
EAST SLOPES AND CENTRAL MONTANA
CITY           SKY/WX    TMP DP  RH WIND       PRES   REMARKS
CUT BANK       SUNNY     72  32  23 S13       29.80F
GREAT FALLS    SUNNY     72  32  23 S14       29.85S
HELENA         SUNNY     55  36  49 N5        29.93F
* CONRAD       SUNNY     68  34  28 N16G21     N/A
* DEARBORN     N/A       64  33  31 S4         N/A
* EAST GLACIER N/A       66  27  23 W23G35     N/A
* MONARCH      N/A       66  28  24 S8         N/A
* PENDROY      N/A       69  37  31 SW12       N/A
* ROGERS PASS  N/A       59  26  28 E7G15      N/A
* SAINT MARY   N/A       67  29  24 SW8G19     N/A
* SWEET GRASS  N/A       63  31  30 S11        N/A
$$

MTZ011-013-016-021-035-040-045-047-050-051-201900-
NORTH CENTRAL MONTANA
CITY           SKY/WX    TMP DP  RH WIND       PRES   REMARKS
HAVRE          SUNNY     59  39  48 VRB3      29.81F
LEWISTOWN      SUNNY     75  30  19 SW16      29.91F
* CHINOOK      SUNNY     55  43  64 E3        29.82F
* FORT BENTON  SUNNY     64  37  37 E3        29.83F
* CHESTER      N/A       61  35  38 SW4        N/A
* DENTON       N/A       74  39  28 S4         N/A
* GEYSER       N/A       74  35  24 SW15       N/A
* JUDITH GAP   N/A       71  32  24 W16G21     N/A
* LOMA         N/A       61  35  38 SE5        N/A
$$

MTZ017>020-022>027-061-062-201900-
NORTHEAST MONTANA
CITY           SKY/WX    TMP DP  RH WIND       PRES   REMARKS
GLASGOW        SUNNY     61  43  52 SE10      29.85F
GLENDIVE       SUNNY     63  41  45 S12       29.93F
JORDAN         SUNNY     73  36  26 SW13      29.85F
SIDNEY         SUNNY     66  45  47 S7        29.92F
WOLF POINT     SUNNY     63  43  48 NE6       29.87F
* BEAVER HILL  N/A       69  39  34 S20        N/A
* CIRCLE       N/A       68  45  44 S7         N/A
* LINDSAY DVD  N/A       63  41  45 SE11G17    N/A
* NAVAJO       N/A       64  41  43 S11        N/A
$$

MTZ028>042-056>058-201900-
SOUTHCENTRAL AND SOUTHEAST MONTANA
CITY           SKY/WX    TMP DP  RH WIND       PRES   REMARKS
BAKER          SUNNY     70  41  35 S16       29.96F
BILLINGS       SUNNY     66  30  26 SW13      29.94S
LIVINGSTON     SUNNY     70  28  21 NW6       29.96F
MILES CITY     SUNNY     64  41  43 VRB6      29.92F
* LAUREL APT   SUNNY     66  32  28 S7         N/A
* ROUNDUP APT  SUNNY     61  34  36 S7         N/A
* ALZADA       N/A       67  43  42 E7         N/A
* HYSHAM       N/A       65  32  29 W9         N/A
* LAME DEER    N/A       70  33  26 E2         N/A
* REED POINT   N/A       61  32  34 W4         N/A
* ROSCOE HILL  N/A       67  24  20 N6         N/A
$$

REGIONAL REPORTS...DAKOTAS
CITY           SKY/WX    TMP DP  RH WIND       PRES   REMARKS
WILLISTON      SUNNY     70  39  32 S12       29.91F
DICKINSON      SUNNY     68  41  38 S20G29    29.96F
BEACH          N/A       66  39  37 S14G20    29.95F
CROSBY         SUNNY     68  39  35 S18       29.90F
TIOGA          SUNNY     66  39  37 S21       29.97F
BISMARCK       SUNNY     68  43  40 SE9       30.04F
GRAND FORKS    SUNNY     54  43  67 E3        30.06F
FARGO          SUNNY     59  43  56 N6        30.06F
BUFFALO SD     SUNNY     70  43  38 S14G20    29.92F
RAPID CITY     SUNNY     68  43  40 SE13      30.01F
$$

REGIONAL REPORTS...WYOMING/IDAHO/WASHINGTON
CITY           SKY/WX    TMP DP  RH WIND       PRES   REMARKS
GILLETTE       SUNNY     70  39  32 S10       29.99F
SHERIDAN       SUNNY     66  32  28 N5        29.96F
CODY           SUNNY    N/A N/A N/A S6        30.01F
YELLOWSTONE LA SUNNY     48  28  46 VRB3      30.22F
MULLAN PASS    SUNNY     57  34  42 N/A       29.91S
SAND POINT     SUNNY     55  46  72 NE5       29.80F
SPOKANE        PTSUNNY   63  41  45 S8        29.77S

$$



USA.gov is the U.S. government's official web portal to all federal, state and local government web resources and services.